Regional Weather Roundup
Issued by NWS

Home | Current Version | Previous Version | Graphics & Text | Print | Product List | Glossary On
Versions: 1 2 3 4 5 6 7 8 9 10 11 12 13 14 15 16 17 18 19 20 21 22 23 24 25 26 27 28 29 30 31 32 33 34 35 36 37 38 39 40 41 42 43 44 45 46 47 48 49 50
000
ASUS43 KIND 172159
RWRIN

WEATHER ROUNDUP FOR INDIANA
NATIONAL WEATHER SERVICE INDIANAPOLIS IN
500 PM EST FRI NOV 17 2017

NOTE: "FAIR" INDICATES FEW OR NO CLOUDS BELOW 12,000 FEET WITH NO
SIGNIFICANT WEATHER AND/OR OBSTRUCTIONS TO VISIBILITY.

* - STATION DOES NOT REPORT WEATHER SUCH AS PRECIPITATION OR FOG.

+ - STATION NOT QUALITY CONTROLLED BY THE NATIONAL WEATHER SERVICE.
    USE DATA WITH CAUTION...ESPECIALLY DEWPOINT AND RELATIVE
    HUMIDITY OBSERVATIONS.

INZ001>003-010>013-019-020-172300-
NORTHWEST INDIANA

CITY           SKY/WX    TMP DP  RH WIND       PRES   REMARKS
GARY /AIRPORT/ CLOUDY    45  34  65 SE14      29.82F
KNOX *+        CLOUDY    45  34  65 S13G20    29.87F
LA PORTE +     DRIZZLE   43  34  69 S10G16    29.85F
MONTICELLO +   CLOUDY    45  32  61 SE8       29.87F
RENSSELAER +   CLOUDY    45  32  61 SE12G18   29.84F
VALPARAISO     LGT RAIN  45  36  70 S10G20    29.84F

$$

LMZ046-743>745-172300-
SOUTHERN LAKE MICHIGAN

STATION/POSITION TIME  TEMP    WIND        PRES    WAVE
                       AIR SEA DIR/SP/G            HT
                 (UTC) (F)     (DEG/KT/KT) (MB)    (FT)
BURNS HARBOR     2140   44     170/ 13/ 18 1010.5F
MICHIGAN CITY    2130   45     140/ 13/ 16   N/A

$$

INZ004-005-014>016-021>024-172300-
NORTH CENTRAL INDIANA

CITY           SKY/WX    TMP DP  RH WIND       PRES   REMARKS
GOSHEN         CLOUDY    44  32  62 SE15      29.89F
PERU/GRISSOM   CLOUDY    46  35  65 S13       29.89F
SOUTH BEND     CLOUDY    44  35  70 SE14      29.87F
WARSAW +       CLOUDY    43  34  70 SE9       29.89F

$$

INZ006>009-017-018-025>027-172300-
NORTHEAST INDIANA

CITY           SKY/WX    TMP DP  RH WIND       PRES   REMARKS
AUBURN +       CLOUDY    43  34  70 SE6       29.94F
FORT WAYNE     CLOUDY    46  35  65 SE9       29.94F
KENDALLVILLE + CLOUDY    43  35  72 S8G16     29.93F

$$

INZ028-029-035-036-043>045-051>053-172300-
WEST CENTRAL INDIANA

CITY           SKY/WX    TMP DP  RH WIND       PRES   REMARKS
CRAWFORDSVL +  CLOUDY    45  33  64 SE12G17   29.88F
GREENCASTLE +  CLOUDY    45  32  61 S9        29.90F
LAFAYETTE      CLOUDY    46  34  62 SE7       29.87F
TERRE HAUTE    CLOUDY    47  36  65 S10       29.90S

$$

INZ030>032-037>040-046>048-054>057-064-065-172300-
CENTRAL INDIANA

CITY           SKY/WX    TMP DP  RH WIND       PRES   REMARKS
COLUMBUS       MOCLDY    46  30  53 S8        29.95F
INDIANAPOLIS   CLOUDY    47  33  58 SE8       29.92F
-EAGLE CREEK   CLOUDY    48  31  51 SE9       29.91F
KOKOMO +       CLOUDY    46  34  62 SE12      29.91F
MT COMFORT *+  CLOUDY    46  37  71 S9        29.93F
SHELBYVILLE    PTCLDY    48  31  51 S12       29.94F

$$

INZ033-034-041-042-049-050-058-059-172300-
EAST CENTRAL INDIANA

CITY           SKY/WX    TMP DP  RH WIND       PRES   REMARKS
MUNCIE         PTCLDY    48  32  53 S9        29.93F
RICHMOND +     PTCLDY    43  32  65 SE10      29.97F

$$

INZ060-061-067>069-081>083-085>088-172300-
SOUTHWEST INDIANA

CITY           SKY/WX    TMP DP  RH WIND       PRES   REMARKS
EVANSVILLE     CLOUDY    49  41  74 SE8       29.91F
HUNTINGBURG +  CLOUDY    49  38  65 MISG      29.93F

$$

INZ062-063-066-070>080-084-089>092-172300-
SOUTH CENTRAL AND SOUTHEAST INDIANA

CITY           SKY/WX    TMP DP  RH WIND       PRES   REMARKS
BLOOMINGTON    CLOUDY    47  33  58 SE12      29.91F
MADISON *+     PTCLDY    50  32  50 SE5       30.00F
SEYMOUR +      CLOUDY    48  34  57 S7        29.97F

$$





USA.gov is the U.S. government's official web portal to all federal, state and local government web resources and services.